Probability
0 0 0 0 0 0 0 0 0 0 0 0 0 0 0 0 0 0 0 0 0 0 0 0 0 0 0 0 0 0 0 1 0 0 0 0 0 0 0 0 0 0 0 0
0 0 0 0 0 0 0 0 0 0 0 0 0 0 0 0 0 0 0 0 0 0 0 0 0 0 0 0 0 0 0 1 0 0 0 0 0 0 0 0 0 0 0 0
0 0 0 0 0 0 0 0 0 0 0 0 0 0 0 0 0 0 0 0 0 0 0 0 0 0 0 0 0 0 0 0 0 0 0 0 0 0 0 0 0 0 0 0
0 0 0 0 0 0 0 0 0 0 0 0 0 0 0 0 0 0 0 0 0 0 0 0 0 0 0 0 0 0 0 0 0 0 0 0 0 0 0 0 0 0 0 0
0 0 0 0 0 0 0 0 0 0 0 0 0 0 0 0 0 0 0 0 0 0 0 0 0 0 0 0 0 0 0 0 0 0 0 0 0 0 0 0 0 0 0 0
0 0 0 0 0 0 0 0 0 0 0 0 0 0 0 0 0 0 0 0 0 0 0 0 0 0 0 0 0 0 0 0 0 0 0 0 0 0 0 0 0 0 0 0
0 0 0 0 0 0 0 0 0 0 0 0 0 0 0 0 0 0 0 0 0 0 0 0 0 0 0 0 0 0 0 0 0 0 0 0 0 0 0 0 0 0 0 0
0 0 0 0 0 0 0 0 0 0 0 0 0 0 0 0 0 0 0 0 0 0 0 0 0 0 0 0 0 0 0 0 0 0 0 0 0 0 0 0 0 0 0 0
0 0 0 0 0 0 0 0 0 0 0 0 0 0 0 0 0 0 0 0 0 0 0 0 0 0 0 0 0 0 0 0 0 0 0 0 0 0 0 0 0 0 0 0
0 0 0 0 0 0 0 0 0 0 0 0 0 0 0 0 0 0 0 0 0 0 0 0 0 0 0 0 0 0 0 0 0 0 0 0 0 0 0 0 0 0 0 0
0 0 0 0 0 0 0 0 0 0 0 0 0 0 0 0 0 0 0 0 0 0 0 0 0 0 0 0 0 0 0 0 0 0 0 0 0 0 0 0 0 0 0 0
0 0 0 0 0 0 0 0 0 0 0 0 0 0 0 0 0 0 0 0 0 0 0 0 0 0 0 0 0 0 0 0 0 0 0 0 0 0 0 0 0 0 0 0
0 0 0 0 0 0 0 0 0 0 0 0 0 0 0 0 0 0 0 0 0 0 0 0 0 0 0 0 0 0 0 0 0 0 0 0 0 0 0 0 0 0 0 0
0 0 0 0 0 0 0 0 0 0 0 0 0 0 0 0 0 0 0 0 0 0 0 0 0 0 0 0 0 0 0 0 0 0 0 0 0 0 0 0 0 0 0 0
0 0 0 0 0 0 0 0 0 0 0 0 0 0 0 0 0 0 0 0 0 0 0 0 0 0 0 0 0 0 0 0 0 0 0 0 0 0 0 0 0 0 0 0
0 0 0 0 0 0 0 0 0 0 0 0 0 0 0 0 0 0 0 0 0 0 0 0 0 0 0 0 0 0 0 0 0 0 0 0 0 0 0 0 0 0 0 0
0 0 0 0 0 0 0 0 0 0 0 0 0 0 0 0 0 0 0 0 0 0 0 0 0 0 0 0 0 0 0 0 0 0 0 0 0 0 0 0 0 0 0 0
0 0 0 0 0 0 0 0 0 0 0 0 0 0 0 0 0 0 0 0 0 0 0 0 0 0 0 0 0 0 0 0 0 0 0 0 0 0 0 0 0 0 0 0
0 0 0 0 0 0 0 0 0 0 0 0 0 0 0 0 0 0 0 0 0 0 0 0 0 0 0 0 0 0 0 0 0 0 0 0 0 0 0 0 0 0 0 0
0 0 0 0 0 0 0 0 0 0 0 0 0 0 0 0 0 0 0 0 0 0 0 0 0 0 0 0 0 0 0 0 0 0 0 0 0 0 0 0 0 0 0 0
0 0 0 0 0 0 0 0 0 0 0 0 0 0 0 0 0 0 0 0 0 0 0 0 0 0 0 0 0 0 0 0 0 0 0 0 0 0 0 0 0 0 0 0
0 0 0 0 0 0 0 0 0 0 0 0 0 0 0 0 0 0 0 0 0 0 0 0 0 0 0 0 0 0 0 0 0 0 0 0 0 0 0 0 0 0 0 0
0 0 0 0 0 0 0 0 0 0 0 0 0 0 0 0 0 0 0 0 0 0 0 0 0 0 0 0 0 0 0 0 0 0 0 0 0 0 0 0 0 0 0 0
0 0 0 0 0 0 0 0 0 0 0 0 0 0 0 0 0 0 0 0 0 0 0 0 0 0 0 0 0 0 0 0 0 0 0 0 0 0 0 0 0 0 0 0
0 0 0 0 0 0 0 0 0 0 0 0 0 0 0 0 0 0 0 0 0 0 0 0 0 0 0 0 0 0 0 0 0 0 0 0 0 0 0 0 0 0 0 0
0 0 0 0 0 0 0 0 0 0 0 0 0 0 0 0 0 0 0 0 0 0 0 0 0 0 0 0 0 0 0 0 0 0 0 0 0 0 0 0 0 0 0 0
0 0 0 0 0 0 0 0 0 0 0 0 0 0 0 0 0 0 0 0 0 0 0 0 0 0 0 0 0 0 0 0 0 0 0 0 0 0 0 0 0 0 0 0
Wind_Speed
6 5 3 5 6 6 8 8 7 7 7 5 2 1 2 1 2 2 3 3 3 4 4 5 5 5 5 6 6 6 5 5 6 6 7 7 6 7 7 7 8 8 7 6
5 5 5 7 8 8 8 9 10 9 10 2 1 1 1 1 2 3 4 4 4 5 5 6 6 6 6 7 7 6 5 5 6 6 6 6 7 7 7 8 8 7 6 6
4 1 4 8 7 8 5 4 4 8 6 1 2 2 2 2 2 3 4 5 5 5 6 6 6 6 7 7 7 6 6 6 6 7 7 7 8 8 7 7 7 7 6 6
3 3 7 5 2 2 3 4 3 3 2 1 2 3 2 2 1 3 4 5 5 6 6 6 5 6 6 7 6 6 6 7 7 7 8 8 7 7 7 6 6 6 7 7
2 4 8 2 1 2 2 4 3 4 3 2 2 3 2 1 2 2 3 4 4 5 5 6 6 6 6 7 7 7 7 7 7 7 8 8 8 7 6 6 7 7 7 7
3 4 7 3 2 2 2 4 1 2 2 1 2 2 3 2 3 4 4 4 4 5 5 6 6 6 6 7 7 8 8 8 8 7 8 8 8 7 6 6 7 7 8 6
5 6 7 1 2 2 2 5 0 2 1 1 2 3 2 3 3 3 4 4 5 5 5 5 6 6 6 7 7 8 9 8 8 8 7 8 7 7 6 7 7 7 8 7
4 6 8 3 4 4 4 1 1 1 0 0 2 2 3 3 4 4 5 5 5 5 6 6 5 5 7 8 8 8 9 9 9 8 7 7 7 7 7 6 7 7 7 7
6 6 2 5 4 2 1 1 0 0 0 0 2 3 4 4 4 4 4 5 4 5 6 6 6 5 7 8 8 8 9 8 8 9 7 7 7 7 6 5 5 6 6 6
3 4 2 3 2 1 1 1 0 0 0 0 2 3 4 4 4 4 4 5 4 5 6 7 6 6 6 8 8 8 9 9 8 8 7 7 6 6 6 5 5 6 6 6
4 3 1 2 2 1 1 0 0 1 0 1 1 3 3 4 4 4 5 5 5 5 6 7 7 7 8 8 8 8 9 8 8 7 7 7 6 6 7 5 7 7 6 6
5 3 3 2 1 1 1 0 0 0 1 1 1 2 3 3 3 4 4 5 5 6 7 7 7 7 7 7 7 8 9 8 7 6 6 6 6 7 10 11 13 14 13 11
2 1 1 1 0 1 1 0 0 0 1 2 2 2 2 3 4 4 4 5 5 6 7 7 7 8 8 7 8 7 8 8 7 7 7 7 7 7 8 10 12 13 14 14
2 1 1 1 0 1 1 1 1 1 1 1 2 2 2 3 4 4 5 5 6 6 6 7 7 8 7 7 8 8 8 9 9 6 6 6 7 7 7 8 8 7 10 13
1 1 2 0 1 1 1 1 0 1 1 2 2 2 3 3 4 5 5 6 6 6 6 6 7 8 7 7 8 8 7 6 6 6 6 6 7 6 6 7 7 7 7 8
1 1 1 1 1 1 0 0 1 2 2 2 3 3 3 4 5 5 5 5 5 7 7 7 8 8 7 7 8 7 6 11 10 7 6 6 6 6 6 6 6 6 6 7
2 2 2 2 2 2 1 2 2 2 2 3 3 4 4 4 5 5 5 5 5 6 6 7 8 8 7 7 7 6 6 8 12 8 6 6 6 6 6 6 6 6 6 8
2 2 2 2 2 2 2 2 2 2 2 3 3 3 4 4 5 6 6 5 6 6 6 6 7 7 7 7 6 6 6 6 6 6 6 6 6 6 6 6 7 7 6 7
1 1 0 0 0 1 1 2 2 2 2 2 3 4 4 4 5 5 5 5 6 7 7 6 12 9 7 8 9 5 6 6 6 6 6 9 8 6 6 6 6 6 7 6
1 1 1 0 1 0 1 1 2 2 2 2 3 4 4 5 5 5 5 5 5 5 6 8 8 7 7 8 10 5 6 6 6 6 6 6 6 6 6 6 6 6 6 6
1 1 0 0 1 1 1 1 1 2 3 2 3 4 5 5 5 5 5 6 5 5 7 11 7 6 6 8 10 5 5 6 6 6 6 6 6 6 6 6 6 6 6 6
1 1 1 0 0 1 1 1 2 2 2 3 3 4 5 5 5 5 5 5 5 10 7 5 5 9 11 12 5 5 5 6 6 5 5 5 5 6 6 6 6 6 5 5
1 1 0 1 1 1 2 2 2 2 3 3 4 4 4 5 4 4 6 4 5 10 7 5 10 15 16 7 4 5 6 6 6 6 5 5 5 5 6 6 6 6 5 5
1 0 0 0 0 1 2 2 2 2 3 4 4 4 4 4 4 3 4 8 11 12 7 10 15 16 14 5 5 5 5 6 6 6 6 5 5 5 5 5 6 5 5 6
0 0 0 0 1 1 2 2 2 3 3 3 3 3 2 2 3 4 4 5 10 11 6 9 14 15 8 5 5 5 5 6 6 6 5 5 5 5 5 5 5 5 5 5
0 0 1 1 1 1 1 2 2 2 3 3 3 3 3 3 4 4 4 5 7 10 7 5 6 8 5 5 5 6 6 7 7 6 6 5 6 6 5 6 7 6 5 5
0 0 0 1 1 1 1 2 2 3 3 3 4 4 4 4 4 4 5 4 5 5 5 5 5 5 5 5 5 6 5 5 5 5 5 5 5 5 5 6 6 5 5 5
Wind_Direction
276 282 265 255 246 222 216 223 237 258 271 276 257 265 276 287 305 319 321 320 321 323 323 324 326 325 325 321 320 317 306 304 303 306 305 306 310 311 310 309 305 300 300 303
280 253 257 264 252 241 240 242 252 267 277 291 345 348 316 308 318 316 313 321 328 328 326 324 324 326 326 323 320 318 311 304 303 305 305 307 307 307 307 306 303 301 303 303
273 308 314 264 237 219 220 222 225 246 256 9 337 315 301 295 301 307 317 323 325 324 321 320 323 324 321 318 317 319 315 313 312 309 308 308 308 309 305 303 303 304 303 301
280 313 251 242 84 138 198 245 222 231 268 320 299 313 309 297 310 323 323 322 323 323 321 321 323 324 321 319 318 316 313 311 312 314 313 312 307 304 302 301 301 301 301 300
247 263 268 249 157 138 183 273 231 226 254 294 0 346 318 13 17 331 322 321 319 321 319 319 322 324 324 321 321 319 316 315 316 316 313 312 307 304 302 301 299 298 300 299
226 245 256 236 105 91 91 282 256 179 230 282 33 310 280 348 358 340 334 330 326 324 320 320 322 327 326 321 323 320 317 315 315 314 310 307 304 300 298 298 297 299 297 296
231 245 261 208 150 124 176 253 124 134 190 190 209 234 283 333 333 329 328 327 328 324 321 320 323 328 322 319 318 315 316 315 313 310 305 301 301 302 301 299 300 300 298 298
202 226 249 151 140 186 213 150 112 123 152 219 269 301 322 324 323 324 324 324 327 325 321 321 324 326 320 318 317 318 317 315 314 313 310 310 308 308 307 303 302 301 301 303
199 215 201 163 179 192 124 145 163 101 16 173 290 298 309 311 312 314 317 319 321 320 319 322 326 327 319 317 320 320 318 314 313 313 311 308 307 308 307 306 303 302 303 305
252 255 212 183 188 152 132 189 296 48 3 312 277 296 304 307 311 315 316 316 321 322 319 319 323 325 318 319 322 322 318 316 316 317 312 310 307 305 303 303 301 301 303 304
248 266 306 234 207 203 159 107 36 6 349 291 287 295 300 305 309 312 317 321 322 319 314 313 320 321 321 323 325 322 317 316 317 316 314 314 311 306 303 293 298 302 302 301
224 205 193 227 141 111 139 212 225 261 298 312 289 286 301 300 303 307 311 316 317 315 313 314 317 316 317 320 321 319 317 318 316 314 313 312 311 312 311 308 310 309 309 308
213 76 147 241 81 79 104 68 359 273 263 291 302 298 302 301 305 309 311 314 311 308 307 309 312 312 315 319 320 317 312 313 312 314 315 314 314 314 315 318 318 317 317 317
150 129 250 234 156 62 63 38 36 329 295 287 299 308 306 305 308 310 307 305 304 305 306 307 309 309 314 319 318 315 312 310 311 309 312 312 311 310 311 314 318 318 318 319
174 169 198 201 87 56 52 53 340 302 304 311 316 313 311 308 304 301 301 306 309 308 307 309 310 311 318 319 317 315 312 309 307 306 307 308 308 308 309 309 310 313 316 319
161 155 169 186 233 282 312 294 278 287 301 304 308 307 304 297 295 297 302 309 308 305 307 309 309 310 316 318 317 313 309 312 316 311 310 311 313 314 313 312 313 315 317 318
156 199 209 233 250 260 256 257 263 276 287 291 294 302 306 305 305 304 306 307 301 297 301 304 305 310 315 315 312 309 308 310 315 315 311 310 311 311 312 314 314 314 313 315
175 195 203 212 223 244 267 278 281 286 284 287 299 302 300 298 297 300 303 309 309 304 303 304 306 311 310 310 308 306 307 307 308 308 308 309 310 312 313 311 312 312 313 317
163 179 204 272 245 214 245 266 279 284 286 288 291 291 290 290 293 297 303 307 305 305 310 313 317 322 315 313 316 307 308 308 309 309 308 312 316 314 313 313 313 314 315 318
149 144 127 53 36 135 262 275 280 286 287 288 291 295 297 296 296 299 300 292 284 285 301 312 316 313 311 309 314 308 307 306 306 308 309 308 310 312 313 313 314 313 314 315
165 150 143 273 324 311 277 273 275 283 291 288 283 288 294 297 297 296 297 298 298 306 315 318 322 313 309 311 315 313 308 306 306 306 307 308 310 311 312 313 313 312 312 313
186 190 220 238 278 301 301 294 279 281 291 294 293 295 299 301 302 299 288 284 301 316 322 313 311 313 317 322 319 314 311 310 308 307 307 307 308 309 311 312 310 308 309 310
184 183 196 226 247 276 298 293 281 278 283 288 290 290 289 289 293 298 303 307 313 316 320 309 313 319 324 331 322 318 317 316 314 313 311 309 307 306 306 307 307 308 306 307
138 137 228 262 280 288 292 293 294 289 284 282 280 280 285 296 297 287 291 311 318 319 318 315 321 325 331 332 320 316 314 313 311 309 309 310 310 310 308 308 308 310 310 309
110 141 233 286 281 279 289 302 305 300 299 297 299 299 294 286 289 299 303 304 312 319 317 317 322 326 330 317 315 313 311 308 308 310 312 313 311 310 309 309 309 310 309 308
110 245 255 257 260 274 296 304 304 306 311 309 307 306 305 301 295 296 300 302 305 315 316 309 310 317 315 312 311 310 308 311 315 316 312 311 311 311 310 311 311 310 309 308
357 318 310 314 314 315 308 302 301 303 305 302 303 305 308 309 308 307 306 307 308 309 307 307 309 309 309 310 309 309 308 309 309 309 310 309 308 306 307 308 307 307 307 307